Location: Lane
(33.5226°N, 79.8788°W)
Time: 06:16:56
(UTC+00:00)

Vanguard 2 - Pass Details

Date: 10 October 2022
Orbit: 553 x 2933 km, 32.9° (Epoch: 26 November)

Event Time Altitude Azimuth Distance (km) Brightness Sun altitude
Rises 18:49:59 0° 275° (W) 4,396 11.7 42.7°
Reaches altitude 10° 18:52:27 10° 274° (W) 3,678 11.5 42.4°
Maximum altitude 19:02:40 85° 188° (S) 2,142 10.6 41.1°
Drops below altitude 10° 19:19:03 10° 103° (ESE) 5,591 11.7 38.8°
Sets 19:23:46 0° 103° (ESE) 6,733 12.1 38.1°
